BEIDOU-2 IGSO-6 (C13)

Last updated on Mon Oct 20 2025 00:03:24 GMT+0000 (Coordinated Universal Time)

1 41434U 16021A 25291.84565222 -.00000168 00000+0 00000+0 0 9993 2 41434 59.8910 40.4489 0057957 228.9528 157.0906 1.00264632 35064
UTC large
Height (km)
Speed (km/s)
/
Latitude / Longitude
Inclination (degrees)
Orbital Period (minutes)
Azimuth
Elevation
Range (km)
Doppler Factor

Next 0 passes for location: London (51.5072 / 0.1276)

Sorry there are no passes over London.